sat.trackr.live / text

‹ back to catalog

STARLINK-3310

NORAD 50835 · 2022-001AJ

PAYLOAD ACTIVE UNKNOWN

§ Identity

Operator
Country
US
Launch date
2022-01-06
Launch site
AFETR
Launch vehicle
Mass (kg)
RCS (m²)

Purposes: comms

External: N2YO · Heavens-Above · Gunter

§ Orbital elements

Epoch: 2026-09-19T23:04:03.787680Z

Period
95.16 min
Inclination
53.2163°
Eccentricity
0.0001656
Mean motion
15.13257623 rev/d
Perigee alt
525.1 km
Apogee alt
527.4 km
Semi-major
6,904.4 km
B*
7.8865e-4
RAAN
24.7468°
Arg perigee
109.9256°
Mean anomaly
250.1917°
Rev number
25,962

§ Raw data

STARLINK-33101 50835U 22001AJ  26262.96115495  .00013912  00000+0  78865-3 0  99962 50835  53.2163  24.7468 0001656 109.9256 250.1917 15.13257623259628

JSON: /api/v1/satellites/50835 · /tle

For live sub-satellite position, see the globe view (requires WebGL).

§ Visibility from observer

Set your observer location to see the next 7 days of passes ≥ 10°. The values pass through the URL so the page stays shareable.

No JS? Fill the form by hand. The geolocation button needs JavaScript.